Location: Zagreb
(45.8000°N, 16.0000°E)
Time: 14:31:10
(UTC+02:00)

Vanguard 1 - Pass Details

Date: 14 August 2022
Orbit: 649 x 3832 km, 34.2° (Epoch: 25 September)

Event Time Altitude Azimuth Distance (km) Brightness Sun altitude
Rises 07:02:26 0° 260° (W) 6,245 13.5 10.5°
Reaches altitude 10° 07:06:02 10° 256° (WSW) 5,575 13.3 11.1°
Maximum altitude 07:24:15 60° 184° (S) 4,022 13.3 14.3°
Drops below altitude 10° 07:46:53 10° 112° (ESE) 6,722 15.7 18.2°
Sets 07:51:47 0° 109° (ESE) 7,534 15.9 19.1°
